map of LMP home
Great Circle Mapper logo
LMP - Airport
Location
City:  Lampedusa, Lampedusa Island, Sicily, Italy
ICAO / IATA:LICD / LMP

Details
Type:Airport (Aerodrome, Airfield)
Latitude:3529'52"N (35.497914)
Longitude:1237'05"E (12.618083)
Datum:WGS 1984
Elevation:70 ft (21 m)
Runways:1
Longest:5906 × 148 ft (1800 × 45 m), paved

Time
Time Zone:UTC+1 (DST+2)
Local Time:

Weather
METAR:LICD 241950Z 34017KT 9999 SCT030 21/13 Q1015
TAF:LICD 242120Z 2418/2518 CNL

Related Locations
Nearby:
Farthest:CHT: 11685 mi / 18806 km
Waitangi [Tuuta], Chatham Islands, NZ

Find:

   beyond  
but within

Other Information
Maps:
NOTAMs:
Links:
Sources:

  
flag of Italy
flag of Sicily
  

Sectional Chart

Flight Planning
at skyvector.com

Satellite Image

Google Maps Satellite View

 

Copyright © 2004-2014 Karl L. Swartz. All rights reserved.
The Great Circle Mapper name and logo are trademarks of the Great Circle Mapper.
All other trademarks mentioned herein belong to their respective owners.
Please see credits for attibutions and further copyright information.

  Follow gcmap on Facebook Follow gcmap on Twitter

hCard Microformat

Geo Microformat